Overview Statistics Trail Chart Weather Telemetry Raw packets
 

This is the latest recevied weather packets stored in our database for station/object N8BAP. If no packets are shown the sender has not sent any weather packets the latest 10 day(s).

<< 1 2 3 4 >>
Time Temp. Humidity Pressure Rain* Wind** Luminosity Snow
1788634780 30° C 70% 1019.2 hPa 0 mm - 241 W/m² -
1788634476 30° C 68% 1019.3 hPa 0 mm - 595 W/m² -
1788634174 29.44° C 68% 1019.5 hPa 0 mm - 679 W/m² -
1788633869 29.44° C 67% 1019.3 hPa 0 mm - 649 W/m² -
1788633568 29.44° C 69% 1019.5 hPa 0 mm - 487 W/m² -
1788633263 29.44° C 69% 1019.6 hPa 0 mm - 580 W/m² -
1788632958 29.44° C 67% 1019.5 hPa 0 mm - 359 W/m² -
1788632657 28.89° C 67% 1019.5 hPa 0 mm - 448 W/m² -
1788632352 29.44° C 68% 1019.3 hPa 0 mm - 273 W/m² -
1788632047 30° C 68% 1019.6 hPa 0 mm - 159 W/m² -
1788631745 30° C 63% 1019.5 hPa 0 mm - 281 W/m² -
1788631449 29.44° C 69% 1019.4 hPa 0 mm - 705 W/m² -
1788631135 28.89° C 71% 1019.5 hPa 0 mm - 880 W/m² -
1788630835 27.78° C 74% 1019.5 hPa 0 mm - 817 W/m² -
1788630530 27.78° C 71% 1019.7 hPa 0 mm - 223 W/m² -
1788630226 27.22° C 73% 1019.6 hPa 0 mm - 260 W/m² -
1788629922 27.22° C 74% 1019.7 hPa 0 mm - 166 W/m² -
1788629618 27.78° C 72% 1019.6 hPa 0 mm - 176 W/m² -
1788629313 28.33° C 71% 1019.8 hPa 0 mm - 145 W/m² -
1788629010 28.89° C 72% 1019.4 hPa 0 mm - 248 W/m² -
1788628707 28.89° C 71% 1019.4 hPa 0 mm - 461 W/m² -
1788628404 29.44° C 70% 1019.2 hPa 0 mm - 264 W/m² -
1788628100 29.44° C 66% 1019.3 hPa 0 mm - 760 W/m² -
1788627803 29.44° C 69% 1019.5 hPa 0 mm - 636 W/m² -
1788627494 29.44° C 66% 1019.6 hPa 0 mm - 636 W/m² -

* Rain latest hour (hover to see other rain measurements)
** Current wind speed in m/s (hover to see current wind gust speed)